Content
SEND FEEDBACK

Daily
Averages
Monthly
Summary
France

ORANGE, FRANCE


Home > Europe > France
Elevation: 197 feet     Latitude: 44 08N     Longitude: 004 52E

WEATHER
 
SELECT A DAY
Number of Records: 149,254;   Date Range: 12/3/98 - 8/10/14
 
SHARE

PRINT THIS DATA

[ ← Previous Day ]
WEATHER ALMANAC - SEPTEMBER 18, 2013
[ Next Day → ]
[ °C ]   °F
Weather ElementAverageHighLow
Temperature63.8 °F78.8 °F (3:00 pm)46.4 °F (7:00 am)
Dewpoint50.4 °F57.2 °F (7:00 pm)42.8 °F (5:00 am)
Humidity63.8 %93 % (7:30 am)44 % (3:00 pm)
Barometer29.82 in29.92 in (12:30 am)29.74 in (5:00 pm)
Wind Speed4.1 mph11.5 mph (4:30 pm)
Weather ElementAverage
Visibility6.2 mi
Wind DirectionESE (120.6 °)

Weather ElementTotal
Precipitation---
Heating Degree Days2.4 (Base 65)
Growing Degree Days12.6 (Base 50)
Averaged from 47 records on September 18, 2013
WEATHER CONDITIONS BREAKOUT
WIND DIRECTION BREAKOUT
WEATHER BY HOUR - SEPTEMBER 18, 2013
[ °C ]   °F
Local TimeTemperatureDewpointHumidityBarometerVisibilityWind DirectionWind SpeedGust SpeedPrecipitationEventsConditions
12:30 AM55.4 °F44.6 °F67 %29.92 in6.2 miWSW (250°)4.6 mph
1:00 AM53.6 °F44.6 °F72 %29.89 in6.2 miVariable2.3 mph
1:30 AM51.8 °F44.6 °F76 %29.89 in6.2 miCalm
2:00 AM51.8 °F44.6 °F76 %29.89 in6.2 miCalm
2:30 AM50.0 °F44.6 °F82 %29.89 in6.2 miENE (60°)2.3 mph
3:00 AM50.0 °F44.6 °F82 %29.89 in6.2 miNE (50°)3.5 mph
3:30 AM50.0 °F44.6 °F82 %29.86 in6.2 miEast (90°)1.2 mph
4:00 AM50.0 °F44.6 °F82 %29.86 in6.2 miCalm
4:30 AM48.2 °F44.6 °F87 %29.86 in6.2 miNE (40°)2.3 mph
5:00 AM48.2 °F42.8 °F82 %29.86 in6.2 miVariable2.3 mph
5:30 AM48.2 °F44.6 °F87 %29.86 in6.2 miCalm
6:00 AM48.2 °F42.8 °F82 %29.86 in6.2 miNNW (330°)2.3 mph
6:30 AM48.2 °F44.6 °F87 %29.83 in6.2 miVariable1.2 mph
7:00 AM46.4 °F42.8 °F87 %29.86 in6.2 miVariable2.3 mph
7:30 AM46.4 °F44.6 °F93 %29.86 in6.2 miCalm
8:00 AM48.2 °F44.6 °F87 %29.86 in6.2 miCalm
8:30 AM53.6 °F46.4 °F77 %29.86 in6.2 miENE (70°)1.2 mph
9:00 AM55.4 °F48.2 °F77 %29.86 in6.2 miVariable1.2 mph
9:30 AM60.8 °F48.2 °F63 %29.86 in6.2 miVariable1.2 mphPartly Cloudy
10:00 AM60.8 °F48.2 °F63 %29.86 in6.2 miVariable2.3 mphMostly Cloudy
10:30 AM62.6 °F48.2 °F59 %29.86 in6.2 miVariable3.5 mph
11:00 AM64.4 °F50.0 °F59 %29.86 in6.2 miSSE (160°)3.5 mph
11:30 AM64.4 °F50.0 °F59 %29.86 in6.2 miSSE (150°)3.5 mph
12:00 PM68.0 °F51.8 °F56 %29.83 in6.2 miSE (140°)4.6 mphPartly Cloudy
12:30 PM71.6 °F53.6 °F53 %29.83 in6.2 miVariable3.5 mph
1:00 PM73.4 °F53.6 °F50 %29.83 in6.2 miVariable3.5 mph
1:30 PM75.2 °F55.4 °F50 %29.83 in6.2 miVariable1.2 mph
2:00 PM75.2 °F55.4 °F50 %29.80 in6.2 miVariable1.2 mph
2:30 PM77.0 °F55.4 °F47 %29.80 in6.2 miVariable2.3 mph
3:00 PM78.8 °F55.4 °F44 %29.77 in6.2 miVariable3.5 mph
3:30 PM78.8 °F55.4 °F44 %29.77 in6.2 miVariable3.5 mph
4:00 PM78.8 °F55.4 °F44 %29.77 in6.2 miCalm
4:30 PM78.8 °F55.4 °F44 %29.77 in6.2 miWest (270°)11.5 mph
5:00 PM78.8 °F55.4 °F44 %29.74 in6.2 miWest (280°)10.4 mph
5:30 PM78.8 °F55.4 °F44 %29.74 in6.2 miWest (280°)10.4 mphPartly Cloudy
6:00 PM77.0 °F55.4 °F47 %29.74 in6.2 miWest (260°)8.1 mph
6:30 PM77.0 °F55.4 °F47 %29.74 in6.2 miWSW (250°)10.4 mph
7:00 PM77.0 °F57.2 °F50 %29.74 in6.2 miWSW (250°)8.1 mph
7:30 PM75.2 °F55.4 °F50 %29.74 in6.2 miWest (270°)10.4 mphPartly Cloudy
8:00 PM73.4 °F55.4 °F53 %29.77 in6.2 miWest (280°)8.1 mph
8:30 PM71.6 °F55.4 °F57 %29.77 in6.2 miNW (310°)5.8 mph
9:00 PM71.6 °F55.4 °F57 %29.77 in6.2 miNW (310°)8.1 mph
9:30 PM71.6 °F57.2 °F60 %29.80 in6.2 miWNW (300°)6.9 mphPartly Cloudy
10:00 PM69.8 °F55.4 °F60 %29.80 in6.2 miWNW (300°)6.9 mphPartly Cloudy
10:30 PM69.8 °F55.4 °F60 %29.80 in6.2 miWNW (290°)6.9 mph
11:00 PM68.0 °F53.6 °F60 %29.80 in6.2 miNW (320°)8.1 mph
11:30 PM68.0 °F53.6 °F60 %29.80 in6.2 miNorth (360°)10.4 mph
Hourly data recorded from LFMO, located miles away from Orange, France







STORIES FROM OUR PARTNERS